{"data":{"norad_id":59794,"intl_designator":"2024-093N","name":"STARLINK-31823","alt_names":[],"object_type":"PAYLOAD","status":"ACTIVE","operator":null,"country":"US","launch_date":"2024-05-18","launch_site_code":"AFETR","launch_vehicle":null,"mission":null,"orbit_class":"UNKNOWN","rcs_meters":null,"size_class":null,"mass_kg":null,"dimensions":null,"purposes":["comms"],"wikipedia_slug":null,"has_3d_model":false,"image_url":null,"decayed_at":null,"tle_current":{"epoch":"2026-09-21T04:19:15.097440Z","epoch_age_seconds":115750,"freshness":"FRESH","line1":"1 59794U 24093N   26264.18003585  .00000550  00000+0  29517-4 0  9999","line2":"2 59794  43.0028 184.8259 0001171 275.0953  84.9765 15.27575726132597","mean_motion":15.27575726,"eccentricity":0.0001171,"inclination_deg":43.0028,"raan_deg":184.8259,"arg_perigee_deg":275.0953,"mean_anomaly_deg":84.9765,"bstar":2.9517e-5,"rev_number":13259,"period_min":94.267012462333,"perigee_km":482.25844757257,"apogee_km":483.86534035354,"semimajor_km":6861.1988939631,"source":"CELESTRAK","updated_at":"2026-09-22T09:00:49.073459Z"}}}